Weather History for Bullhead City, AZ

Change the Weather History Date:

Wednesday, February 20, 2013

  Actual Average Record
Temperature  
Mean Temperature 50 °F -  
Max Temperature 57 °F 65 °F 78 °F (1991)
Min Temperature 42 °F 48 °F 33 °F (1988)
Degree Days  
Heating Degree Days 16    
Moisture  
Dew Point 39 °F    
Average Humidity 74    
Maximum Humidity 87    
Minimum Humidity 38    
Precipitation  
Precipitation 0.21 in - - ()
Sea Level Pressure  
Sea Level Pressure 29.73 in    
Wind  
Wind Speed 6 mph (South)    
Max Wind Speed 14 mph    
Max Gust Speed 29 mph    
Visibility 9 miles    
Events Rain    
Averages and records for this station are not official NWS values.
T = Trace of Precipitation, MM = Missing Value Source: NWS Daily Summary

Daily Weather History Graph

Daily Weather History Graph

Search for Another Location

Airport:

Trip Planner

Search our weather history database for the weather conditions in past years. The results will help you decide how hot, cold, wet, or windy it might be!

Date:

Astronomy

Feb. 20, 2013 Rise Set
Actual Time 7:18 AM MST 6:25 PM MST
Civil Twilight 6:52 AM MST 6:51 PM MST
Nautical Twilight 6:23 AM MST 7:21 PM MST
Astronomical Twilight 5:53 AM MST 7:50 PM MST
Moon 1:57 PM MST (2/20) 3:35 AM MST (2/20)
Length of Visible Light 11h 58m
Length of Day
11h 07m
Waxing Gibbous, 76% of the Moon is Illuminated
Feb 20
Waxing Gibbous
Feb 25
Full
Mar 4
Last Quarter
Mar 11
New
Mar 19
First Quarter

Hourly Weather History & Observations

Time (MST) Temp. Windchill Dew Point Humidity Pressure Visibility Wind Dir Wind Speed Gust Speed Precip Events Conditions
12:15 AM 57.2 °F - 32.0 °F 38% 29.60 in 10.0 mi WNW 13.8 mph 19.6 mph N/A   Overcast
12:35 AM 50.0 °F - 37.4 °F 62% 29.62 in 4.0 mi SW 8.1 mph 28.8 mph 0.01 in Rain Light Rain
12:55 AM 50.0 °F - 39.2 °F 66% 29.61 in 10.0 mi West 5.8 mph - 0.02 in Rain Light Rain
1:15 AM 50.0 °F - 41.0 °F 71% 29.61 in 10.0 mi Calm Calm - N/A   Overcast
1:35 AM 51.8 °F - 37.4 °F 58% 29.61 in 7.0 mi Calm Calm - N/A Rain Light Rain
1:55 AM 48.2 °F - 39.2 °F 71% 29.63 in 5.0 mi WNW 9.2 mph 20.7 mph 0.02 in Rain Light Rain
2:15 AM 48.2 °F - 39.2 °F 71% 29.62 in 7.0 mi West 4.6 mph - 0.01 in Rain Light Rain
2:35 AM 48.2 °F - 41.0 °F 76% 29.61 in 10.0 mi East 4.6 mph - 0.01 in   Scattered Clouds
2:55 AM 48.2 °F - 41.0 °F 76% 29.61 in 10.0 mi East 9.2 mph - 0.01 in   Mostly Cloudy
3:15 AM 48.2 °F - 41.0 °F 76% 29.60 in 10.0 mi East 8.1 mph - N/A   Overcast
3:35 AM 48.2 °F - 41.0 °F 76% 29.59 in 10.0 mi ESE 9.2 mph - N/A   Overcast
4:15 AM 48.2 °F - 41.0 °F 76% 29.58 in 10.0 mi Calm Calm - N/A   Mostly Cloudy
4:35 AM 48.2 °F - 41.0 °F 76% 29.58 in 10.0 mi Calm Calm - N/A Rain Light Rain
5:15 AM 48.2 °F - 41.0 °F 76% 29.60 in 10.0 mi WSW 3.5 mph - N/A Rain Light Rain
5:35 AM 46.4 °F 42.9 °F 39.2 °F 76% 29.61 in 6.0 mi WSW 6.9 mph - 0.02 in Rain Light Rain
5:55 AM 46.4 °F 43.5 °F 39.2 °F 76% 29.61 in 10.0 mi SSE 5.8 mph - 0.02 in Rain Light Rain
6:15 AM 46.4 °F 42.9 °F 41.0 °F 81% 29.61 in 10.0 mi SE 6.9 mph - 0.01 in Rain Light Rain
6:35 AM 44.6 °F 40.7 °F 41.0 °F 87% 29.62 in 10.0 mi SE 6.9 mph - 0.01 in Rain Light Rain
6:55 AM 46.4 °F 42.9 °F 41.0 °F 81% 29.62 in 10.0 mi SE 6.9 mph - 0.01 in Rain Light Rain
7:15 AM 46.4 °F 42.9 °F 41.0 °F 81% 29.63 in 8.0 mi SSE 6.9 mph - N/A Rain Light Rain
7:35 AM 44.6 °F 40.2 °F 39.2 °F 81% 29.63 in 5.0 mi South 8.1 mph - 0.01 in Rain Light Rain
7:55 AM 44.6 °F 40.2 °F 39.2 °F 81% 29.64 in 5.0 mi South 8.1 mph - 0.03 in Rain Light Rain
8:35 AM 44.6 °F 42.2 °F 39.2 °F 81% 29.66 in 5.0 mi SW 4.6 mph - 0.05 in Rain Light Rain
8:55 AM 44.6 °F - 41.0 °F 87% 29.67 in 6.0 mi Calm Calm - 0.06 in Rain Light Rain
9:15 AM 42.8 °F 41.1 °F 39.2 °F 87% 29.68 in 5.0 mi WNW 3.5 mph - N/A Rain Light Rain
9:35 AM 44.6 °F - 39.2 °F 81% 29.69 in 5.0 mi Calm Calm - 0.01 in Rain Light Rain
9:55 AM 44.6 °F - 39.2 °F 81% 29.70 in 10.0 mi Calm Calm - 0.01 in Rain Light Rain
10:15 AM 44.6 °F - 39.2 °F 81% 29.71 in 10.0 mi Calm Calm - 0.01 in Rain Light Rain
10:35 AM 42.8 °F 36.6 °F 39.2 °F 87% 29.71 in 5.0 mi SSE 11.5 mph - 0.02 in Rain Light Rain
10:55 AM 42.8 °F 37.0 °F 39.2 °F 87% 29.72 in 5.0 mi SSE 10.4 mph - 0.03 in Rain Light Rain
11:15 AM 42.8 °F 38.0 °F 37.4 °F 81% 29.73 in 8.0 mi South 8.1 mph - N/A Rain Light Rain
11:35 AM 44.6 °F 38.8 °F 39.2 °F 81% 29.74 in 7.0 mi South 11.5 mph - N/A Rain Light Rain
11:55 AM 44.6 °F 39.2 °F 37.4 °F 76% 29.74 in 9.0 mi SSE 10.4 mph - N/A Rain Light Rain
12:15 PM 44.6 °F 40.2 °F 37.4 °F 76% 29.75 in 10.0 mi South 8.1 mph - N/A   Overcast
12:35 PM 44.6 °F 39.7 °F 37.4 °F 76% 29.74 in 10.0 mi South 9.2 mph - N/A   Overcast
12:55 PM 44.6 °F 41.4 °F 37.4 °F 76% 29.75 in 10.0 mi South 5.8 mph - N/A   Overcast
1:15 PM 46.4 °F 42.4 °F 37.4 °F 71% 29.75 in 10.0 mi South 8.1 mph - N/A   Overcast
1:35 PM 46.4 °F 42.9 °F 37.4 °F 71% 29.75 in 10.0 mi SSW 6.9 mph - N/A   Overcast
1:55 PM 46.4 °F 42.4 °F 39.2 °F 76% 29.75 in 10.0 mi South 8.1 mph - N/A   Mostly Cloudy
2:15 PM 46.4 °F 42.9 °F 37.4 °F 71% 29.76 in 10.0 mi SW 6.9 mph - N/A   Overcast
2:35 PM 48.2 °F - 37.4 °F 66% 29.76 in 10.0 mi SSW 5.8 mph - N/A   Mostly Cloudy
2:55 PM 48.2 °F - 37.4 °F 66% 29.76 in 10.0 mi SW 8.1 mph - N/A   Mostly Cloudy
3:15 PM 48.2 °F - 37.4 °F 66% 29.77 in 10.0 mi SW 8.1 mph - N/A   Mostly Cloudy
3:35 PM 46.4 °F 42.9 °F 37.4 °F 71% 29.77 in 10.0 mi SW 6.9 mph - N/A   Scattered Clouds
3:55 PM 48.2 °F - 39.2 °F 71% 29.78 in 10.0 mi SW 9.2 mph - N/A   Mostly Cloudy
4:15 PM 48.2 °F - 39.2 °F 71% 29.78 in 10.0 mi SSW 8.1 mph - N/A   Mostly Cloudy
4:35 PM 48.2 °F - 39.2 °F 71% 29.78 in 10.0 mi SW 6.9 mph - N/A   Mostly Cloudy
4:55 PM 48.2 °F - 37.4 °F 66% 29.79 in 10.0 mi SW 9.2 mph - N/A   Mostly Cloudy
5:15 PM 48.2 °F - 37.4 °F 66% 29.80 in 10.0 mi SW 8.1 mph - N/A   Mostly Cloudy
5:35 PM 48.2 °F - 37.4 °F 66% 29.80 in 10.0 mi SW 5.8 mph - N/A   Mostly Cloudy
5:55 PM 48.2 °F - 37.4 °F 66% 29.80 in 10.0 mi SSW 5.8 mph - N/A   Mostly Cloudy
6:35 PM 48.2 °F - 39.2 °F 71% 29.81 in 10.0 mi SW 4.6 mph - N/A   Overcast
6:55 PM 48.2 °F - 39.2 °F 71% 29.82 in 10.0 mi SSW 3.5 mph - N/A   Overcast
7:15 PM 48.2 °F - 39.2 °F 71% 29.83 in 10.0 mi Calm Calm - N/A   Overcast
7:35 PM 48.2 °F - 39.2 °F 71% 29.84 in 10.0 mi Calm Calm - N/A   Overcast
7:55 PM 46.4 °F 45.2 °F 39.2 °F 76% 29.85 in 10.0 mi South 3.5 mph - N/A   Overcast
8:35 PM 46.4 °F 44.3 °F 39.2 °F 76% 29.86 in 10.0 mi SSE 4.6 mph - N/A   Overcast
8:55 PM 46.4 °F - 39.2 °F 76% 29.87 in 10.0 mi Calm Calm - N/A   Mostly Cloudy
9:15 PM 46.4 °F 44.3 °F 39.2 °F 76% 29.88 in 10.0 mi South 4.6 mph - N/A   Scattered Clouds
9:35 PM 46.4 °F 44.3 °F 39.2 °F 76% 29.88 in 10.0 mi South 4.6 mph - N/A   Mostly Cloudy
9:55 PM 46.4 °F 44.3 °F 39.2 °F 76% 29.89 in 10.0 mi South 4.6 mph - N/A   Mostly Cloudy
10:15 PM 46.4 °F - 39.2 °F 76% 29.90 in 10.0 mi Calm Calm - N/A   Mostly Cloudy
10:35 PM 46.4 °F 44.3 °F 39.2 °F 76% 29.90 in 10.0 mi South 4.6 mph - N/A   Overcast
10:55 PM 46.4 °F 45.2 °F 39.2 °F 76% 29.90 in 10.0 mi South 3.5 mph - N/A   Overcast
11:15 PM 46.4 °F 44.3 °F 39.2 °F 76% 29.91 in 10.0 mi SSE 4.6 mph - N/A   Mostly Cloudy
11:35 PM 46.4 °F 43.5 °F 39.2 °F 76% 29.91 in 10.0 mi South 5.8 mph - N/A   Scattered Clouds
11:55 PM 46.4 °F - 39.2 °F 76% 29.92 in 10.0 mi Calm Calm - N/A   Mostly Cloudy